Showing default

ARCTICSAT-1, 61762

Orbit data source: Space-Track

ARCTICSAT-1, 61762 is a Commonwealth of Independent States-origin payload satellite in SSO that was launched on Mon, 04 Nov 2024 UTC via a SOYUZ-2-1B launch vehicle from the Vostochny Cosmodrome (VOSTO). Payload-class satellites include a variety of spacecraft equipped with specific instruments for various scientific and technological missions. These include communications satellites like Starlink; space stations such as the ISS; scientific satellites like the Hubble; Earth observation satellites from companies like Planet Labs, Umbra, and HawkEye 360; GPS; miniature CubeSats for education and research; and military/defense satellites.

Not visible in the next 10 days
Identifier
61762, 2024-199AD
Orbit
SSO
Country
Flag of CISCIS
Related business
Manufacturer
Sputniks
Mission
Operational Amateur Sci/Com
Bus & Motor
CUBESAT 3U, Unknown motor
Mass
3 kg wet, 3 kg dry
Launch date (UTC)
2024-11-04 (2 years ago)
Launch vehicle
SOYUZ-2-1B
Launch site
Vostochny Cosmodrome (VOSTO)
Object type
Payload
Rocket body
Debris
Shape & HBR
Box, 0.1 m
Radar Cross Section
0.035 m², Small (<0.1 m²)

Expand to show TLE details & history
Last TLE update: 6 hours ago

TLE from 6 hours ago
0 ARCTICSAT-1
1 61762U 24199AD  26127.90976143  .00093663  00000-0  44246-3 0  9994
2 61762  97.2925   9.1126 0004103  93.3139 266.8600 15.82775608131702
Epoch: 2026-05-07T21:50Z
TLE epoch observation values (Epoch: 2026-05-07T21:50:03.387Z)
Latitude
Longitude
175.84936°
Altitude
325.925 km
Speed
7.713 km/s
True Right ascension
00h 36m 27s
True Declination
0° 00' 00"
Sunlit
Object was in daylight at epoch
Visualization orbit readout
Latitude
Unknown
Longitude
Unknown
Altitude
Unknown
Speed
Unknown
Apparent Right ascension
Unknown
Apparent Declination
Unknown
Sunlit
N/A
Visualization observer readout
Local Sidereal Time
11:26:52
Azimuth
Unknown
Elevation
Unknown
Doppler factor
Unknown
Orbital elements
Apogee altitude
322.221 km
Perigee altitude
316.725 km
Semi-major axis
6,697.61 km
Eccentricity
0.00041
Inclination
97.2925°
RAAN
9.1126°
Arg. of periapsis
93.3139°
True anomaly
266.81305°
Mean anomaly
266.86°
Eccentric anomaly
266.83653°
Mean motion
3.95971 °/min
Orbital period
90.92 mins
BSTAR
0.00044246
Loading maneuver chart data...
Computing Atmospheric mass density...
Loading historical data...
Loading historical data...
Loading historical data...
Loading historical data...
Loading historical data...
Loading historical data...
Loading historical data...

Documentation

Showing up to 5 results
|